Carlsbad, CA

4:42 PM PDT on May 26, 2018 (GMT -0700)
McClellan-Palomar

Weather History for KCRQ - September, 2012

Change the Weather History Date:

Wednesday, September 26, 2012

  Actual Average Record
Temperature  
Mean Temperature 68 °F -  
Max Temperature 73 °F 71 °F 102 °F (2016)
Min Temperature 64 °F 59 °F 57 °F (2005)
Cooling Degree Days 4    
Growing Degree Days 18 (Base 50)    
Moisture  
Dew Point 60 °F    
Average Humidity 75    
Maximum Humidity 84    
Minimum Humidity 59    
Precipitation  
Precipitation 0.00 in - - ()
Sea Level Pressure  
Sea Level Pressure 29.86 in    
Wind  
Wind Speed 2 mph (West)    
Max Wind Speed 9 mph    
Max Gust Speed -    
Visibility 10 miles    
Events      
Averages and records for this station are not official NWS values.
T = Trace of Precipitation, MM = Missing Value Source: NWS Daily Summary

Daily Weather History Graph

Daily Weather History Graph

Search for Another Location

Airport or City:

Astronomy

Sep. 26, 2012 Rise Set
Actual Time 6:40 AM PDT 6:39 PM PDT
Civil Twilight 6:15 AM PDT 7:04 PM PDT
Nautical Twilight 5:46 AM PDT 7:32 PM PDT
Astronomical Twilight 5:17 AM PDT 8:01 PM PDT
Moon 4:34 PM PDT 3:20 AM PDT
Length of Visible Light 12h 48m
Length of Day
11h 59m
Waxing Gibbous, 88% of the Moon is Illuminated
Sep 26
Waxing Gibbous
Sep 29
Full
Oct 8
Last Quarter
Oct 15
New
Oct 21
First Quarter

Hourly Weather History & Observations

Time (PDT) Temp. Dew Point Humidity Pressure Visibility Wind Dir Wind Speed Gust Speed Precip Events Conditions
12:53 AM 64.4 °F 59.0 °F 83% 29.88 in 10.0 mi Calm Calm - N/A   Overcast
1:53 AM 66.0 °F 59.0 °F 78% 29.88 in 10.0 mi Calm Calm - N/A   Overcast
2:53 AM 64.9 °F 59.0 °F 81% 29.86 in 10.0 mi Calm Calm - N/A   Overcast
3:53 AM 64.9 °F 59.0 °F 81% 29.86 in 10.0 mi Calm Calm - N/A   Overcast
4:53 AM 64.4 °F 59.0 °F 83% 29.86 in 10.0 mi Calm Calm - N/A   Overcast
5:53 AM 64.9 °F 59.0 °F 81% 29.86 in 10.0 mi Calm Calm - N/A   Overcast
6:53 AM 64.0 °F 57.9 °F 80% 29.87 in 9.0 mi Calm Calm - N/A   Overcast
7:53 AM 64.9 °F 57.9 °F 78% 29.88 in 8.0 mi Calm Calm - N/A   Overcast
8:53 AM 66.0 °F 57.0 °F 73% 29.88 in 9.0 mi Calm Calm - N/A   Overcast
9:45 AM 69.8 °F 57.2 °F 64% 29.88 in 10.0 mi Variable 3.5 mph - N/A   Scattered Clouds
9:53 AM 69.1 °F 57.9 °F 68% 29.87 in 10.0 mi Variable 3.5 mph - N/A   Partly Cloudy
10:53 AM 73.0 °F 57.9 °F 59% 29.86 in 10.0 mi Variable 3.5 mph - N/A   Clear
11:53 AM 71.1 °F 59.0 °F 66% 29.84 in 10.0 mi West 6.9 mph - N/A   Clear
12:53 PM 72.0 °F 60.1 °F 66% 29.84 in 10.0 mi WSW 8.1 mph - N/A   Clear
1:53 PM 73.9 °F 61.0 °F 64% 29.83 in 10.0 mi West 6.9 mph - N/A   Clear
2:53 PM 72.0 °F 61.0 °F 68% 29.83 in 10.0 mi West 9.2 mph - N/A   Clear
3:53 PM 72.0 °F 61.0 °F 68% 29.82 in 10.0 mi Variable 6.9 mph - N/A   Clear
4:53 PM 72.0 °F 62.1 °F 71% 29.82 in 10.0 mi Variable 5.8 mph - N/A   Clear
5:53 PM 70.0 °F 62.1 °F 76% 29.83 in 10.0 mi West 5.8 mph - N/A   Partly Cloudy
6:53 PM 69.1 °F 62.1 °F 78% 29.84 in 10.0 mi West 3.5 mph - N/A   Partly Cloudy
7:53 PM 69.1 °F 61.0 °F 75% 29.84 in 10.0 mi Calm Calm - N/A   Clear
8:53 PM 68.0 °F 61.0 °F 78% 29.86 in 10.0 mi Calm Calm - N/A   Clear
9:53 PM 68.0 °F 61.0 °F 78% 29.87 in 10.0 mi Calm Calm - N/A   Clear
10:53 PM 66.9 °F 62.1 °F 84% 29.87 in 10.0 mi Calm Calm - N/A   Clear
11:53 PM 66.0 °F 61.0 °F 84% 29.86 in 8.0 mi NNW 3.5 mph - N/A   Clear